| time (UTC) | temp F | wind direction | speed MPH | gust MPH | rain 1hr in | rain 24hr in | rain mn in | humidity % | barometer mb |
| 20260831093545 | 80 | 248 | 1.0 | 7.0 | 0.00 | 0.00 | 0.00 | 58 | 1013.3 |
| 20260831093104 | 81 | 190 | 0.0 | 7.0 | 0.00 | 0.00 | 0.00 | 58 | 1013.0 |
| 20260831092545 | 81 | 160 | 2.0 | 10.0 | 0.00 | 0.00 | 0.00 | 57 | 1012.8 |
| 20260831092044 | 81 | 175 | 3.0 | 14.0 | 0.00 | 0.00 | 0.00 | 57 | 1012.7 |
| 20260831091615 | 81 | 236 | 2.0 | 14.0 | 0.00 | 0.00 | 0.00 | 56 | 1012.6 |
| 20260831091044 | 82 | 241 | 2.0 | 14.0 | 0.00 | 0.00 | 0.00 | 56 | 1012.6 |
| 20260831090546 | 82 | 206 | 3.0 | 11.0 | 0.00 | 0.00 | 0.00 | 56 | 1012.5 |
| 20260831090054 | 82 | 264 | 3.0 | 11.0 | 0.00 | 0.00 | 0.00 | 56 | 1012.3 |
| 20260831085544 | 82 | 190 | 2.0 | 10.0 | 0.00 | 0.00 | 0.00 | 55 | 1012.4 |
| 20260831085044 | 83 | 200 | 3.0 | 9.0 | 0.00 | 0.00 | 0.00 | 54 | 1012.3 |
| 20260831084616 | 83 | 167 | 4.0 | 13.0 | 0.00 | 0.00 | 0.00 | 54 | 1012.3 |
| 20260831084043 | 83 | 184 | 4.0 | 13.0 | 0.00 | 0.00 | 0.00 | 54 | 1012.2 |
| 20260831083543 | 83 | 241 | 2.0 | 12.0 | 0.00 | 0.00 | 0.00 | 54 | 1012.3 |
| 20260831083104 | 83 | 223 | 4.0 | 12.0 | 0.00 | 0.00 | 0.00 | 53 | 1012.3 |
| 20260831082544 | 83 | 214 | 4.0 | 11.0 | 0.00 | 0.00 | 0.00 | 53 | 1012.3 |
| 20260831082044 | 83 | 216 | 5.0 | 11.0 | 0.00 | 0.00 | 0.00 | 53 | 1012.3 |
| 20260831081605 | 83 | 238 | 3.0 | 11.0 | 0.00 | 0.00 | 0.00 | 53 | 1012.1 |
| 20260831081044 | 84 | 165 | 4.0 | 11.0 | 0.00 | 0.00 | 0.00 | 52 | 1012.2 |
| 20260831080544 | 84 | 199 | 3.0 | 12.0 | 0.00 | 0.00 | 0.00 | 52 | 1012.2 |
| 20260831080103 | 84 | 196 | 5.0 | 12.0 | 0.00 | 0.00 | 0.00 | 52 | 1012.2 |
| 20260831075543 | 84 | 224 | 5.0 | 12.0 | 0.00 | 0.00 | 0.00 | 52 | 1012.2 |
| 20260831075047 | 84 | 232 | 4.0 | 12.0 | 0.00 | 0.00 | 0.00 | 52 | 1012.2 |
| 20260831074605 | 84 | 228 | 4.0 | 12.0 | 0.00 | 0.00 | 0.00 | 52 | 1012.2 |
| 20260831074043 | 84 | 232 | 4.0 | 11.0 | 0.00 | 0.00 | 0.00 | 52 | 1012.3 |
| 20260831073544 | 84 | 234 | 3.0 | 11.0 | 0.00 | 0.00 | 0.00 | 52 | 1012.4 |
| 20260831073104 | 84 | 196 | 4.0 | 11.0 | 0.00 | 0.00 | 0.00 | 52 | 1012.4 |
| 20260831072546 | 84 | 252 | 3.0 | 13.0 | 0.00 | 0.00 | 0.00 | 52 | 1012.5 |
| 20260831072043 | 84 | 231 | 4.0 | 13.0 | 0.00 | 0.00 | 0.00 | 52 | 1012.4 |
| 20260831071615 | 84 | 226 | 4.0 | 10.0 | 0.00 | 0.00 | 0.00 | 52 | 1012.6 |
| 20260831071047 | 84 | 223 | 4.0 | 11.0 | 0.00 | 0.00 | 0.00 | 52 | 1012.5 |
| 20260831070544 | 84 | 226 | 4.0 | 12.0 | 0.00 | 0.00 | 0.00 | 52 | 1012.5 |
| 20260831070107 | 84 | 220 | 4.0 | 13.0 | 0.00 | 0.00 | 0.00 | 52 | 1012.5 |
| 20260831065544 | 84 | 238 | 5.0 | 13.0 | 0.00 | 0.00 | 0.00 | 52 | 1012.6 |
| 20260831065044 | 84 | 202 | 5.0 | 13.0 | 0.00 | 0.00 | 0.00 | 51 | 1012.5 |
| 20260831064613 | 85 | 231 | 4.0 | 12.0 | 0.00 | 0.00 | 0.00 | 51 | 1012.5 |
| 20260831064044 | 85 | 230 | 4.0 | 13.0 | 0.00 | 0.00 | 0.00 | 51 | 1012.4 |
| 20260831063544 | 85 | 155 | 4.0 | 13.0 | 0.00 | 0.00 | 0.00 | 51 | 1012.5 |
| 20260831063117 | 85 | 169 | 3.0 | 12.0 | 0.00 | 0.00 | 0.00 | 51 | 1012.5 |
| 20260831062544 | 85 | 188 | 4.0 | 12.0 | 0.00 | 0.00 | 0.00 | 51 | 1012.4 |
| 20260831062045 | 85 | 232 | 4.0 | 12.0 | 0.00 | 0.00 | 0.00 | 51 | 1012.3 |
| 20260831061604 | 85 | 205 | 4.0 | 12.0 | 0.00 | 0.00 | 0.00 | 51 | 1012.3 |
| 20260831061046 | 85 | 213 | 4.0 | 12.0 | 0.00 | 0.00 | 0.00 | 51 | 1012.3 |
| 20260831060541 | 85 | 221 | 4.0 | 16.0 | 0.00 | 0.00 | 0.00 | 51 | 1012.1 |
| 20260831060115 | 85 | 221 | 4.0 | 16.0 | 0.00 | 0.00 | 0.00 | 51 | 1011.9 |
| 20260831055544 | 86 | 228 | 4.0 | 13.0 | 0.00 | 0.00 | 0.00 | 51 | 1012.0 |
| 20260831055044 | 86 | 184 | 4.0 | 13.0 | 0.00 | 0.00 | 0.00 | 51 | 1011.9 |
| 20260831054600 | 86 | 249 | 4.0 | 15.0 | 0.00 | 0.00 | 0.00 | 51 | 1011.8 |
| 20260831054049 | 86 | 200 | 5.0 | 15.0 | 0.00 | 0.00 | 0.00 | 51 | 1011.7 |
| 20260831053544 | 86 | 223 | 4.0 | 12.0 | 0.00 | 0.00 | 0.00 | 51 | 1011.6 |
| 20260831053105 | 86 | 180 | 2.0 | 19.0 | 0.00 | 0.00 | 0.00 | 51 | 1011.6 |
| 20260831052544 | 86 | 217 | 6.0 | 19.0 | 0.00 | 0.00 | 0.00 | 51 | 1011.5 |
| 20260831052045 | 85 | 224 | 3.0 | 10.0 | 0.00 | 0.00 | 0.00 | 51 | 1011.6 |
| 20260831051614 | 85 | 192 | 2.0 | 10.0 | 0.00 | 0.00 | 0.00 | 51 | 1011.6 |
| 20260831051044 | 86 | 134 | 5.0 | 10.0 | 0.00 | 0.00 | 0.00 | 51 | 1011.5 |
| 20260831050543 | 85 | 213 | 4.0 | 10.0 | 0.00 | 0.00 | 0.00 | 51 | 1011.6 |
| 20260831050113 | 86 | 214 | 2.0 | 10.0 | 0.00 | 0.00 | 0.00 | 51 | 1011.5 |
| 20260831045544 | 86 | 257 | 2.0 | 10.0 | 0.00 | 0.00 | 0.00 | 51 | 1011.6 |
| 20260831045044 | 86 | 220 | 3.0 | 10.0 | 0.00 | 0.00 | 0.00 | 51 | 1011.5 |
| 20260831044557 | 86 | 180 | 3.0 | 13.0 | 0.00 | 0.00 | 0.00 | 50 | 1011.4 |
| 20260831044047 | 86 | 234 | 4.0 | 13.0 | 0.00 | 0.00 | 0.00 | 50 | 1011.4 |
| 20260831043543 | 86 | 202 | 4.0 | 12.0 | 0.00 | 0.00 | 0.00 | 50 | 1011.5 |
| 20260831043103 | 86 | 215 | 3.0 | 12.0 | 0.00 | 0.00 | 0.00 | 50 | 1011.5 |
| 20260831042543 | 86 | 211 | 4.0 | 11.0 | 0.00 | 0.00 | 0.00 | 50 | 1011.4 |
| 20260831042042 | 87 | 140 | 3.0 | 11.0 | 0.00 | 0.00 | 0.00 | 49 | 1011.3 |
| 20260831041600 | 87 | 209 | 4.0 | 11.0 | 0.00 | 0.00 | 0.00 | 49 | 1011.3 |
| 20260831041044 | 87 | 231 | 3.0 | 12.0 | 0.00 | 0.00 | 0.00 | 49 | 1011.2 |
| 20260831040540 | 87 | 171 | 4.0 | 14.0 | 0.00 | 0.00 | 0.00 | 48 | 1011.2 |
| 20260831040104 | 87 | 213 | 5.0 | 14.0 | 0.00 | 0.00 | 0.00 | 48 | 1011.3 |
| 20260831035545 | 87 | 165 | 5.0 | 10.0 | 0.00 | 0.00 | 0.00 | 48 | 1011.2 |
| 20260831035045 | 88 | 138 | 3.0 | 17.0 | 0.00 | 0.00 | 0.00 | 48 | 1011.2 |
| 20260831034601 | 88 | 207 | 3.0 | 17.0 | 0.00 | 0.00 | 0.00 | 47 | 1011.2 |
| 20260831034045 | 88 | 153 | 4.0 | 12.0 | 0.00 | 0.00 | 0.00 | 47 | 1011.2 |
| 20260831033546 | 88 | 249 | 4.0 | 13.0 | 0.00 | 0.00 | 0.00 | 47 | 1011.1 |
| 20260831033103 | 88 | 207 | 5.0 | 15.0 | 0.00 | 0.00 | 0.00 | 47 | 1011.2 |
| 20260831032541 | 88 | 192 | 4.0 | 15.0 | 0.00 | 0.00 | 0.00 | 47 | 1011.1 |
| 20260831032043 | 88 | 306 | 4.0 | 13.0 | 0.00 | 0.00 | 0.00 | 46 | 1011.1 |
| 20260831031558 | 88 | 277 | 4.0 | 12.0 | 0.00 | 0.00 | 0.00 | 46 | 1011.0 |
| 20260831031045 | 88 | 155 | 4.0 | 12.0 | 0.00 | 0.00 | 0.00 | 46 | 1011.0 |
| 20260831030545 | 88 | 173 | 2.0 | 11.0 | 0.00 | 0.00 | 0.00 | 46 | 1010.9 |
| 20260831030056 | 88 | 228 | 4.0 | 11.0 | 0.00 | 0.00 | 0.00 | 46 | 1010.8 |
| 20260831025545 | 88 | 146 | 2.0 | 10.0 | 0.00 | 0.00 | 0.00 | 47 | 1011.0 |
| 20260831025044 | 88 | 209 | 3.0 | 10.0 | 0.00 | 0.00 | 0.00 | 47 | 1010.8 |
| 20260831024602 | 88 | 184 | 2.0 | 9.0 | 0.00 | 0.00 | 0.00 | 47 | 1010.9 |
| 20260831024043 | 88 | 214 | 4.0 | 10.0 | 0.00 | 0.00 | 0.00 | 47 | 1010.9 |
| 20260831023543 | 88 | 184 | 3.0 | 10.0 | 0.00 | 0.00 | 0.00 | 47 | 1010.7 |
| 20260831023109 | 88 | 159 | 3.0 | 12.0 | 0.00 | 0.00 | 0.00 | 47 | 1010.8 |
| 20260831022540 | 89 | 199 | 3.0 | 14.0 | 0.00 | 0.00 | 0.00 | 47 | 1010.8 |
| 20260831022040 | 89 | 202 | 3.0 | 14.0 | 0.00 | 0.00 | 0.00 | 47 | 1010.7 |
| 20260831021601 | 89 | 311 | 2.0 | 9.0 | 0.00 | 0.00 | 0.00 | 47 | 1010.7 |
| 20260831021044 | 89 | 206 | 3.0 | 13.0 | 0.00 | 0.00 | 0.00 | 47 | 1010.8 |
| 20260831020544 | 89 | 193 | 3.0 | 13.0 | 0.00 | 0.00 | 0.00 | 46 | 1010.6 |
| 20260831020115 | 89 | 213 | 2.0 | 11.0 | 0.00 | 0.00 | 0.00 | 47 | 1010.5 |
| 20260831015543 | 89 | 219 | 4.0 | 11.0 | 0.00 | 0.00 | 0.00 | 46 | 1010.3 |
| 20260831015043 | 89 | 159 | 3.0 | 9.0 | 0.00 | 0.00 | 0.00 | 47 | 1010.3 |
| 20260831014600 | 89 | 231 | 2.0 | 9.0 | 0.00 | 0.00 | 0.00 | 47 | 1010.3 |
| 20260831014043 | 90 | 181 | 3.0 | 8.0 | 0.00 | 0.00 | 0.00 | 47 | 1010.2 |
| 20260831013543 | 90 | 206 | 2.0 | 8.0 | 0.00 | 0.00 | 0.00 | 47 | 1010.2 |
| 20260831013100 | 90 | 0 | 3.0 | 11.0 | 0.00 | 0.00 | 0.00 | 46 | 1010.2 |
| 20260831012540 | 90 | 0 | 3.0 | 11.0 | 0.00 | 0.00 | 0.00 | 47 | 1010.2 |
| 20260831012046 | 90 | 148 | 2.0 | 7.0 | 0.00 | 0.00 | 0.00 | 46 | 1010.2 |
| 20260831011605 | 91 | 222 | 1.0 | 7.0 | 0.00 | 0.00 | 0.00 | 47 | 1010.2 |
| 20260831011047 | 90 | 131 | 2.0 | 7.0 | 0.00 | 0.00 | 0.00 | 47 | 1010.1 |
| 20260831010544 | 91 | 161 | 2.0 | 6.0 | 0.00 | 0.00 | 0.00 | 47 | 1010.1 |
| 20260831005546 | 91 | 0 | 1.0 | 5.0 | 0.00 | 0.00 | 0.00 | 47 | 1010.1 |
| 20260831005043 | 91 | 205 | 1.0 | 5.0 | 0.00 | 0.00 | 0.00 | 47 | 1010.0 |
| 20260831004601 | 92 | 0 | 0.0 | 5.0 | 0.00 | 0.00 | 0.00 | 45 | 1010.1 |
| 20260831004047 | 93 | 0 | 0.0 | 8.0 | 0.00 | 0.00 | 0.00 | 45 | 1010.1 |
| 20260831003540 | 93 | 0 | 2.0 | 8.0 | 0.00 | 0.00 | 0.00 | 43 | 1010.2 |
| 20260831003102 | 94 | 207 | 1.0 | 7.0 | 0.00 | 0.00 | 0.00 | 43 | 1010.1 |
| 20260831002543 | 94 | 0 | 1.0 | 7.0 | 0.00 | 0.00 | 0.00 | 43 | 1010.1 |
| 20260831002043 | 94 | 198 | 1.0 | 6.0 | 0.00 | 0.00 | 0.00 | 43 | 1010.2 |
| 20260831001605 | 95 | 170 | 0.0 | 7.0 | 0.00 | 0.00 | 0.00 | 42 | 1010.2 |
| 20260831001044 | 95 | 163 | 2.0 | 8.0 | 0.00 | 0.00 | 0.00 | 41 | 1010.1 |
| 20260831000543 | 95 | 232 | 1.0 | 8.0 | 0.00 | 0.00 | 0.00 | 42 | 1010.1 |
| 20260831000105 | 96 | 142 | 2.0 | 6.0 | 0.00 | 0.00 | 0.00 | 41 | 1010.1 |
| 20260830235544 | 96 | 296 | 1.0 | 7.0 | 0.00 | 0.00 | 0.00 | 41 | 1010.1 |
| 20260830235046 | 96 | 205 | 1.0 | 7.0 | 0.00 | 0.00 | 0.00 | 41 | 1010.2 |
| 20260830234612 | 97 | 182 | 1.0 | 7.0 | 0.00 | 0.00 | 0.00 | 40 | 1010.0 |
| 20260830234047 | 97 | 165 | 1.0 | 6.0 | 0.00 | 0.00 | 0.00 | 39 | 1010.0 |
| 20260830233543 | 97 | 0 | 1.0 | 10.0 | 0.00 | 0.00 | 0.00 | 38 | 1010.0 |
| 20260830233100 | 98 | 155 | 2.0 | 10.0 | 0.00 | 0.00 | 0.00 | 38 | 1010.0 |
| 20260830232543 | 98 | 174 | 3.0 | 10.0 | 0.00 | 0.00 | 0.00 | 37 | 1010.0 |
| 20260830232045 | 98 | 215 | 4.0 | 9.0 | 0.00 | 0.00 | 0.00 | 37 | 1010.0 |
| 20260830231607 | 99 | 168 | 1.0 | 10.0 | 0.00 | 0.00 | 0.00 | 37 | 1009.9 |
| 20260830231044 | 99 | 199 | 4.0 | 10.0 | 0.00 | 0.00 | 0.00 | 36 | 1009.9 |
| 20260830230545 | 99 | 211 | 4.0 | 10.0 | 0.00 | 0.00 | 0.00 | 36 | 1010.0 |
| 20260830230058 | 99 | 196 | 2.0 | 10.0 | 0.00 | 0.00 | 0.00 | 37 | 1009.9 |
| 20260830225545 | 99 | 178 | 1.0 | 10.0 | 0.00 | 0.00 | 0.00 | 37 | 1009.8 |
| 20260830225044 | 100 | 195 | 4.0 | 10.0 | 0.00 | 0.00 | 0.00 | 36 | 1009.8 |
| 20260830224609 | 100 | 232 | 2.0 | 12.0 | 0.00 | 0.00 | 0.00 | 36 | 1009.8 |
| 20260830224045 | 100 | 161 | 2.0 | 14.0 | 0.00 | 0.00 | 0.00 | 35 | 1009.8 |
| 20260830223546 | 100 | 261 | 4.0 | 14.0 | 0.00 | 0.00 | 0.00 | 36 | 1009.8 |
| 20260830223100 | 100 | 195 | 2.0 | 11.0 | 0.00 | 0.00 | 0.00 | 36 | 1009.6 |
| 20260830222545 | 100 | 185 | 4.0 | 12.0 | 0.00 | 0.00 | 0.00 | 36 | 1009.7 |
| 20260830222045 | 100 | 242 | 3.0 | 12.0 | 0.00 | 0.00 | 0.00 | 36 | 1009.6 |
| 20260830221603 | 101 | 154 | 3.0 | 13.0 | 0.00 | 0.00 | 0.00 | 36 | 1009.7 |
| 20260830221044 | 101 | 0 | 4.0 | 15.0 | 0.00 | 0.00 | 0.00 | 36 | 1009.6 |
| 20260830220544 | 101 | 275 | 4.0 | 15.0 | 0.00 | 0.00 | 0.00 | 36 | 1009.8 |
| 20260830220114 | 101 | 202 | 5.0 | 14.0 | 0.00 | 0.00 | 0.00 | 35 | 1009.9 |
| 20260830215542 | 101 | 197 | 4.0 | 12.0 | 0.00 | 0.00 | 0.00 | 36 | 1009.8 |
| 20260830215044 | 101 | 113 | 3.0 | 17.0 | 0.00 | 0.00 | 0.00 | 37 | 1009.8 |
| 20260830214603 | 101 | 180 | 3.0 | 17.0 | 0.00 | 0.00 | 0.00 | 37 | 1009.8 |
| 20260830214040 | 101 | 106 | 5.0 | 17.0 | 0.00 | 0.00 | 0.00 | 37 | 1010.0 |
| 20260830213545 | 101 | 241 | 3.0 | 13.0 | 0.00 | 0.00 | 0.00 | 38 | 1009.9 |
| 20260830213127 | 101 | 199 | 3.0 | 19.0 | 0.00 | 0.00 | 0.00 | 37 | 1009.9 |
| 20260830212544 | 101 | 209 | 5.0 | 19.0 | 0.00 | 0.00 | 0.00 | 37 | 1009.9 |
| 20260830212045 | 101 | 210 | 1.0 | 11.0 | 0.00 | 0.00 | 0.00 | 39 | 1009.9 |
| 20260830211603 | 101 | 243 | 4.0 | 11.0 | 0.00 | 0.00 | 0.00 | 38 | 1010.0 |
| 20260830211041 | 101 | 259 | 4.0 | 14.0 | 0.00 | 0.00 | 0.00 | 39 | 1010.1 |
| 20260830210544 | 101 | 204 | 4.0 | 14.0 | 0.00 | 0.00 | 0.00 | 40 | 1010.2 |
| 20260830210108 | 101 | 194 | 1.0 | 12.0 | 0.00 | 0.00 | 0.00 | 39 | 1010.3 |
| 20260830205542 | 100 | 238 | 3.0 | 19.0 | 0.00 | 0.00 | 0.00 | 39 | 1010.2 |
| 20260830205043 | 101 | 236 | 4.0 | 19.0 | 0.00 | 0.00 | 0.00 | 38 | 1010.4 |
| 20260830204611 | 100 | 207 | 6.0 | 18.0 | 0.00 | 0.00 | 0.00 | 39 | 1010.4 |
| 20260830204047 | 100 | 188 | 5.0 | 18.0 | 0.00 | 0.00 | 0.00 | 39 | 1010.4 |
| 20260830203540 | 100 | 220 | 2.0 | 14.0 | 0.00 | 0.00 | 0.00 | 39 | 1010.4 |
| 20260830203107 | 101 | 209 | 3.0 | 14.0 | 0.00 | 0.00 | 0.00 | 39 | 1010.6 |
| 20260830202547 | 101 | 217 | 4.0 | 17.0 | 0.00 | 0.00 | 0.00 | 39 | 1010.7 |
| 20260830202045 | 100 | 211 | 5.0 | 17.0 | 0.00 | 0.00 | 0.00 | 39 | 1010.7 |
| 20260830201609 | 100 | 193 | 3.0 | 14.0 | 0.00 | 0.00 | 0.00 | 40 | 1010.8 |
| 20260830201044 | 100 | 202 | 5.0 | 21.0 | 0.00 | 0.00 | 0.00 | 40 | 1010.7 |
| 20260830200542 | 100 | 233 | 6.0 | 21.0 | 0.00 | 0.00 | 0.00 | 38 | 1010.8 |
| 20260830200107 | 99 | 217 | 5.0 | 18.0 | 0.00 | 0.00 | 0.00 | 39 | 1010.9 |
| 20260830195540 | 99 | 226 | 4.0 | 18.0 | 0.00 | 0.00 | 0.00 | 41 | 1010.7 |
| 20260830195040 | 99 | 190 | 6.0 | 18.0 | 0.00 | 0.00 | 0.00 | 41 | 1011.0 |
| 20260830194602 | 99 | 126 | 3.0 | 10.0 | 0.00 | 0.00 | 0.00 | 42 | 1011.0 |
| 20260830194043 | 99 | 217 | 3.0 | 12.0 | 0.00 | 0.00 | 0.00 | 42 | 1011.0 |
| 20260830193542 | 99 | 223 | 4.0 | 12.0 | 0.00 | 0.00 | 0.00 | 42 | 1011.2 |
| 20260830193054 | 99 | 104 | 4.0 | 15.0 | 0.00 | 0.00 | 0.00 | 43 | 1011.3 |
| 20260830192543 | 98 | 184 | 3.0 | 15.0 | 0.00 | 0.00 | 0.00 | 43 | 1011.3 |
| 20260830192043 | 98 | 214 | 4.0 | 15.0 | 0.00 | 0.00 | 0.00 | 43 | 1011.5 |
| 20260830191604 | 98 | 216 | 5.0 | 15.0 | 0.00 | 0.00 | 0.00 | 43 | 1011.4 |
| 20260830191046 | 98 | 164 | 4.0 | 14.0 | 0.00 | 0.00 | 0.00 | 44 | 1011.4 |
| 20260830190540 | 98 | 183 | 3.0 | 11.0 | 0.00 | 0.00 | 0.00 | 45 | 1011.5 |
| 20260830190105 | 97 | 209 | 4.0 | 11.0 | 0.00 | 0.00 | 0.00 | 43 | 1011.4 |
| 20260830185543 | 97 | 194 | 3.0 | 14.0 | 0.00 | 0.00 | 0.00 | 44 | 1011.5 |
| 20260830185040 | 98 | 185 | 4.0 | 14.0 | 0.00 | 0.00 | 0.00 | 46 | 1011.5 |
| 20260830184614 | 98 | 202 | 3.0 | 11.0 | 0.00 | 0.00 | 0.00 | 45 | 1011.5 |
| 20260830184044 | 97 | 209 | 2.0 | 16.0 | 0.00 | 0.00 | 0.00 | 45 | 1011.7 |
| 20260830183544 | 97 | 200 | 4.0 | 18.0 | 0.00 | 0.00 | 0.00 | 45 | 1011.6 |
| 20260830183057 | 97 | 215 | 5.0 | 18.0 | 0.00 | 0.00 | 0.00 | 45 | 1011.8 |
| 20260830182544 | 97 | 215 | 6.0 | 17.0 | 0.00 | 0.00 | 0.00 | 44 | 1011.8 |
| 20260830182045 | 97 | 209 | 3.0 | 16.0 | 0.00 | 0.00 | 0.00 | 46 | 1011.9 |
| 20260830181605 | 96 | 214 | 3.0 | 16.0 | 0.00 | 0.00 | 0.00 | 46 | 1011.9 |
| 20260830181046 | 96 | 239 | 4.0 | 16.0 | 0.00 | 0.00 | 0.00 | 46 | 1012.0 |
| 20260830180543 | 96 | 190 | 3.0 | 14.0 | 0.00 | 0.00 | 0.00 | 46 | 1012.0 |
| 20260830175545 | 95 | 181 | 4.0 | 15.0 | 0.00 | 0.00 | 0.00 | 47 | 1012.1 |
| 20260830175043 | 95 | 220 | 6.0 | 15.0 | 0.00 | 0.00 | 0.00 | 46 | 1012.2 |
| 20260830174605 | 95 | 240 | 5.0 | 12.0 | 0.00 | 0.00 | 0.00 | 47 | 1012.2 |
| 20260830174043 | 95 | 214 | 3.0 | 9.0 | 0.00 | 0.00 | 0.00 | 47 | 1012.3 |
| 20260830173547 | 95 | 277 | 2.0 | 11.0 | 0.00 | 0.00 | 0.00 | 48 | 1012.3 |
| 20260830173100 | 94 | 217 | 4.0 | 13.0 | 0.00 | 0.00 | 0.00 | 48 | 1012.4 |
| 20260830172543 | 94 | 231 | 5.0 | 13.0 | 0.00 | 0.00 | 0.00 | 48 | 1012.4 |
| 20260830172043 | 93 | 257 | 4.0 | 16.0 | 0.00 | 0.00 | 0.00 | 48 | 1012.4 |
| 20260830171605 | 93 | 255 | 2.0 | 16.0 | 0.00 | 0.00 | 0.00 | 50 | 1012.5 |
| 20260830171042 | 93 | 186 | 3.0 | 14.0 | 0.00 | 0.00 | 0.00 | 48 | 1012.5 |
| 20260830170546 | 92 | 227 | 4.0 | 14.0 | 0.00 | 0.00 | 0.00 | 50 | 1012.4 |
| 20260830170059 | 92 | 234 | 3.0 | 13.0 | 0.00 | 0.00 | 0.00 | 51 | 1012.6 |
| 20260830165547 | 92 | 190 | 5.0 | 13.0 | 0.00 | 0.00 | 0.00 | 49 | 1012.6 |
| 20260830165043 | 91 | 201 | 4.0 | 15.0 | 0.00 | 0.00 | 0.00 | 51 | 1012.7 |
| 20260830164602 | 91 | 238 | 5.0 | 15.0 | 0.00 | 0.00 | 0.00 | 51 | 1012.7 |
| 20260830164043 | 91 | 239 | 6.0 | 15.0 | 0.00 | 0.00 | 0.00 | 50 | 1012.6 |
| 20260830163548 | 91 | 136 | 4.0 | 14.0 | 0.00 | 0.00 | 0.00 | 51 | 1012.7 |
| 20260830163100 | 90 | 238 | 4.0 | 16.0 | 0.00 | 0.00 | 0.00 | 52 | 1012.6 |
| 20260830162544 | 90 | 227 | 6.0 | 16.0 | 0.00 | 0.00 | 0.00 | 52 | 1012.5 |
| 20260830162044 | 89 | 126 | 3.0 | 12.0 | 0.00 | 0.00 | 0.00 | 52 | 1012.6 |
| 20260830161627 | 90 | 220 | 2.0 | 15.0 | 0.00 | 0.00 | 0.00 | 52 | 1012.6 |
| 20260830161044 | 89 | 227 | 5.0 | 15.0 | 0.00 | 0.00 | 0.00 | 53 | 1012.6 |
| 20260830160546 | 88 | 129 | 5.0 | 12.0 | 0.00 | 0.00 | 0.00 | 53 | 1012.5 |
| 20260830160107 | 88 | 207 | 4.0 | 13.0 | 0.00 | 0.00 | 0.00 | 54 | 1012.5 |
| 20260830155544 | 88 | 273 | 6.0 | 13.0 | 0.00 | 0.00 | 0.00 | 53 | 1012.5 |
| 20260830155040 | 88 | 164 | 3.0 | 16.0 | 0.00 | 0.00 | 0.00 | 53 | 1012.5 |
| 20260830154603 | 87 | 207 | 5.0 | 17.0 | 0.00 | 0.00 | 0.00 | 54 | 1012.4 |
| 20260830154046 | 86 | 222 | 5.0 | 17.0 | 0.00 | 0.00 | 0.00 | 54 | 1012.4 |
| 20260830153540 | 86 | 202 | 4.0 | 18.0 | 0.00 | 0.00 | 0.00 | 54 | 1012.4 |
| 20260830153106 | 86 | 243 | 5.0 | 18.0 | 0.00 | 0.00 | 0.00 | 55 | 1012.2 |
| 20260830152542 | 85 | 225 | 5.0 | 18.0 | 0.00 | 0.00 | 0.00 | 56 | 1012.2 |
| 20260830152043 | 85 | 137 | 5.0 | 12.0 | 0.00 | 0.00 | 0.00 | 58 | 1012.2 |
| 20260830151612 | 84 | 158 | 3.0 | 18.0 | 0.00 | 0.00 | 0.00 | 57 | 1012.1 |
| 20260830151045 | 84 | 192 | 6.0 | 18.0 | 0.00 | 0.00 | 0.00 | 57 | 1012.2 |
| 20260830150545 | 84 | 174 | 5.0 | 14.0 | 0.00 | 0.00 | 0.00 | 57 | 1012.2 |
| 20260830150106 | 83 | 212 | 3.0 | 16.0 | 0.00 | 0.00 | 0.00 | 58 | 1012.1 |
| 20260830145543 | 83 | 192 | 8.0 | 16.0 | 0.00 | 0.00 | 0.00 | 57 | 1012.1 |
| 20260830145044 | 83 | 206 | 5.0 | 15.0 | 0.00 | 0.00 | 0.00 | 57 | 1012.1 |
| 20260830144623 | 83 | 212 | 6.0 | 15.0 | 0.00 | 0.00 | 0.00 | 57 | 1012.0 |
| 20260830144040 | 83 | 180 | 5.0 | 16.0 | 0.00 | 0.00 | 0.00 | 58 | 1012.1 |
| 20260830143544 | 83 | 200 | 5.0 | 17.0 | 0.00 | 0.00 | 0.00 | 57 | 1012.1 |
| 20260830143108 | 82 | 196 | 6.0 | 18.0 | 0.00 | 0.00 | 0.00 | 58 | 1012.2 |
| 20260830142544 | 82 | 211 | 7.0 | 18.0 | 0.00 | 0.00 | 0.00 | 58 | 1012.2 |
| 20260830142046 | 82 | 196 | 6.0 | 18.0 | 0.00 | 0.00 | 0.00 | 59 | 1012.2 |
| 20260830141603 | 81 | 208 | 4.0 | 17.0 | 0.00 | 0.00 | 0.00 | 59 | 1012.2 |
| 20260830141044 | 81 | 226 | 5.0 | 17.0 | 0.00 | 0.00 | 0.00 | 60 | 1012.2 |
| 20260830140543 | 80 | 219 | 5.0 | 17.0 | 0.00 | 0.00 | 0.00 | 60 | 1012.2 |
| 20260830140106 | 80 | 195 | 8.0 | 16.0 | 0.00 | 0.00 | 0.00 | 61 | 1012.3 |
| 20260830135543 | 80 | 214 | 4.0 | 15.0 | 0.00 | 0.00 | 0.00 | 61 | 1012.4 |
| 20260830135043 | 79 | 242 | 5.0 | 14.0 | 0.00 | 0.00 | 0.00 | 62 | 1012.4 |
| 20260830134601 | 79 | 205 | 3.0 | 14.0 | 0.00 | 0.00 | 0.00 | 63 | 1012.5 |
| 20260830134043 | 78 | 129 | 3.0 | 11.0 | 0.00 | 0.00 | 0.00 | 63 | 1012.5 |
| 20260830133539 | 78 | 227 | 4.0 | 12.0 | 0.00 | 0.00 | 0.00 | 63 | 1012.8 |
| 20260830133105 | 78 | 230 | 3.0 | 12.0 | 0.00 | 0.00 | 0.00 | 63 | 1012.8 |
| 20260830132544 | 78 | 235 | 4.0 | 11.0 | 0.00 | 0.00 | 0.00 | 63 | 1012.9 |
| 20260830132042 | 78 | 260 | 4.0 | 12.0 | 0.00 | 0.00 | 0.00 | 63 | 1012.9 |
| 20260830131601 | 78 | 219 | 4.0 | 14.0 | 0.00 | 0.00 | 0.00 | 62 | 1013.0 |
| 20260830131040 | 78 | 234 | 4.0 | 14.0 | 0.00 | 0.00 | 0.00 | 62 | 1013.0 |
| 20260830130541 | 78 | 191 | 4.0 | 12.0 | 0.00 | 0.00 | 0.00 | 62 | 1012.9 |
| 20260830130114 | 78 | 181 | 5.0 | 12.0 | 0.00 | 0.00 | 0.00 | 62 | 1013.0 |
| 20260830125540 | 78 | 175 | 3.0 | 10.0 | 0.00 | 0.00 | 0.00 | 63 | 1013.0 |
| 20260830125043 | 77 | 196 | 4.0 | 10.0 | 0.00 | 0.00 | 0.00 | 63 | 1013.1 |
| 20260830124600 | 77 | 184 | 3.0 | 10.0 | 0.00 | 0.00 | 0.00 | 63 | 1013.2 |
| 20260830124046 | 77 | 75 | 2.0 | 9.0 | 0.00 | 0.00 | 0.00 | 64 | 1013.1 |
| 20260830123540 | 77 | 213 | 2.0 | 9.0 | 0.00 | 0.00 | 0.00 | 63 | 1013.2 |
| 20260830123105 | 77 | 192 | 3.0 | 11.0 | 0.00 | 0.00 | 0.00 | 63 | 1013.0 |
| 20260830122540 | 77 | 211 | 3.0 | 11.0 | 0.00 | 0.00 | 0.00 | 63 | 1013.1 |
| 20260830122048 | 77 | 189 | 3.0 | 11.0 | 0.00 | 0.00 | 0.00 | 63 | 1013.0 |
| 20260830121607 | 77 | 209 | 2.0 | 11.0 | 0.00 | 0.00 | 0.00 | 63 | 1013.1 |
| 20260830121040 | 77 | 79 | 4.0 | 11.0 | 0.00 | 0.00 | 0.00 | 63 | 1012.9 |
| 20260830120548 | 77 | 164 | 2.0 | 10.0 | 0.00 | 0.00 | 0.00 | 63 | 1013.0 |
| 20260830120106 | 77 | 208 | 2.0 | 10.0 | 0.00 | 0.00 | 0.00 | 62 | 1013.0 |
| 20260830115541 | 77 | 230 | 3.0 | 15.0 | 0.00 | 0.00 | 0.00 | 62 | 1013.0 |
| 20260830115043 | 77 | 162 | 3.0 | 15.0 | 0.00 | 0.00 | 0.00 | 62 | 1012.7 |
| 20260830114617 | 77 | 162 | 4.0 | 15.0 | 0.00 | 0.00 | 0.00 | 62 | 1012.9 |
| 20260830114039 | 77 | 202 | 3.0 | 9.0 | 0.00 | 0.00 | 0.00 | 61 | 1012.8 |
| 20260830113542 | 77 | 138 | 3.0 | 8.0 | 0.00 | 0.00 | 0.00 | 61 | 1012.8 |
| 20260830113104 | 77 | 217 | 2.0 | 9.0 | 0.00 | 0.00 | 0.00 | 61 | 1013.0 |
| 20260830112542 | 77 | 224 | 3.0 | 10.0 | 0.00 | 0.00 | 0.00 | 61 | 1013.0 |
| 20260830112047 | 77 | 181 | 3.0 | 10.0 | 0.00 | 0.00 | 0.00 | 61 | 1013.0 |
| 20260830111603 | 77 | 163 | 1.0 | 9.0 | 0.00 | 0.00 | 0.00 | 61 | 1013.0 |
| 20260830111040 | 77 | 193 | 2.0 | 9.0 | 0.00 | 0.00 | 0.00 | 61 | 1013.1 |
| 20260830110543 | 77 | 158 | 1.0 | 7.0 | 0.00 | 0.00 | 0.00 | 61 | 1013.1 |
| 20260830105544 | 78 | 194 | 2.0 | 8.0 | 0.00 | 0.00 | 0.00 | 60 | 1013.1 |
| 20260830105040 | 78 | 202 | 1.0 | 7.0 | 0.00 | 0.00 | 0.00 | 60 | 1013.3 |
| 20260830104606 | 78 | 0 | 2.0 | 8.0 | 0.00 | 0.00 | 0.00 | 59 | 1013.1 |
| 20260830104043 | 79 | 228 | 2.0 | 8.0 | 0.00 | 0.00 | 0.00 | 59 | 1013.2 |
| 20260830103546 | 79 | 269 | 2.0 | 8.0 | 0.00 | 0.00 | 0.00 | 59 | 1013.3 |
| 20260830103101 | 79 | 178 | 2.0 | 9.0 | 0.00 | 0.00 | 0.00 | 59 | 1013.0 |
| 20260830102542 | 79 | 229 | 3.0 | 9.0 | 0.00 | 0.00 | 0.00 | 59 | 1013.1 |
| 20260830102044 | 79 | 200 | 2.0 | 8.0 | 0.00 | 0.00 | 0.00 | 58 | 1013.1 |
| 20260830101607 | 79 | 199 | 2.0 | 8.0 | 0.00 | 0.00 | 0.00 | 58 | 1013.2 |
| 20260830101040 | 79 | 223 | 2.0 | 9.0 | 0.00 | 0.00 | 0.00 | 58 | 1013.0 |
| 20260830100543 | 79 | 243 | 4.0 | 13.0 | 0.00 | 0.00 | 0.00 | 57 | 1012.9 |
| 20260830100116 | 79 | 226 | 2.0 | 13.0 | 0.00 | 0.00 | 0.00 | 58 | 1012.8 |
| 20260830095545 | 79 | 216 | 5.0 | 12.0 | 0.00 | 0.00 | 0.00 | 58 | 1012.9 |
| 20260830095040 | 79 | 219 | 3.0 | 10.0 | 0.00 | 0.00 | 0.00 | 58 | 1012.9 |
| 20260830094607 | 80 | 169 | 3.0 | 9.0 | 0.00 | 0.00 | 0.00 | 57 | 1012.7 |
| 20260830094043 | 80 | 261 | 2.0 | 7.0 | 0.00 | 0.00 | 0.00 | 57 | 1012.8 |